This is the latest recevied weather packets stored in our database for station/object M0OAB-1. If no packets are shown the sender has not sent any weather packets the latest 10 day(s).
| Time | Temp. | Humidity | Pressure | Rain* | Wind** | Luminosity | Snow |
|---|---|---|---|---|---|---|---|
| 1777861444 | 12.22° C | 92% | 997.8 hPa | 0 mm | - | - | - |
| 1777861325 | 12.22° C | 92% | 997.8 hPa | 0 mm | - | - | - |
| 1777860245 | 12.22° C | 92% | 997.8 hPa | 0 mm | - | - | - |
| 1777859884 | 12.22° C | 92% | 997.9 hPa | 0 mm | - | - | - |
| 1777859164 | 12.22° C | 91% | 997.9 hPa | 0 mm | - | - | - |
| 1777856404 | 12.78° C | 86% | 997.9 hPa | 0 mm | - | - | - |
| 1777855324 | 13.33° C | 84% | 997.8 hPa | 0 mm | - | - | - |
| 1777855084 | 13.33° C | 84% | 997.9 hPa | 0.25 mm | - | - | - |
| 1777854965 | 13.33° C | 84% | 997.9 hPa | 0.25 mm | - | - | - |
| 1777854844 | 13.33° C | 84% | 997.7 hPa | 0.25 mm | - | - | - |
| 1777854124 | 13.33° C | 82% | 997.7 hPa | 0.51 mm | - | - | - |
| 1777853884 | 13.33° C | 82% | 997.8 hPa | 0.51 mm | - | - | - |
| 1777852684 | 13.89° C | 80% | 997.7 hPa | 1.02 mm | - | - | - |
| 1777852204 | 13.89° C | 76% | 997.8 hPa | 1.02 mm | - | - | - |
| 1777851245 | 13.89° C | 73% | 997.7 hPa | 0.51 mm | - | - | - |
| 1777851125 | 13.89° C | 73% | 997.8 hPa | 0.51 mm | - | - | - |
| 1777850884 | 13.89° C | 73% | 997.9 hPa | 0.25 mm | - | - | - |
| 1777850645 | 13.89° C | 72% | 997.7 hPa | 0.25 mm | - | - | - |
| 1777848965 | 13.89° C | 71% | 997.2 hPa | 0 mm | - | - | - |
| 1777848484 | 13.89° C | 71% | 997.1 hPa | 0 mm | - | - | - |
| 1777848004 | 13.89° C | 70% | 997 hPa | 0 mm | - | - | - |
| 1777847524 | 13.89° C | 70% | 997.2 hPa | 0 mm | - | - | - |
| 1777847165 | 13.89° C | 70% | 997 hPa | 0 mm | - | - | - |
| 1777847044 | 13.89° C | 70% | 997.1 hPa | 0 mm | - | - | - |
| 1777846564 | 13.89° C | 70% | 997 hPa | 0 mm | - | - | - |
* Rain latest hour (hover to see other rain measurements)
** Current wind speed in m/s (hover to see current wind gust speed)